Location: T�bingen+AIT
(48.5342°N, 9.0700°E)
Time: 20:28:33
(UTC+02:00)

SL-16 R/B - Pass Details

Date: 14 September 2017
Orbit: 842 x 847 km, 71.0° (Epoch: 19 September)

Event Time Altitude Azimuth Distance (km) Brightness Sun altitude
Rises 20:31:31 0° 223° (SW) 3,388 5.7 -9.5°
Reaches altitude 10° 20:34:01 10° 228° (SW) 2,457 5.1 -9.9°
Maximum altitude 20:39:30 51° 304° (NW) 1,056 3.2 -10.7°
Drops below altitude 10° 20:45:01 10° 21° (NNE) 2,473 4.6 -11.6°
Sets 20:47:34 0° 26° (NNE) 3,412 5.3 -12.0°
